EUTE 12 WEST A (AB 1)

导读

EUTE 12 WEST A(又称AB 1),由欧洲卫星运营商Eutelsat发射,是一颗商用通信卫星。该卫星于2002年8月28日发射升空,隶属于Eutelsat统一星座体系,名称中的“West”对应其西半球轨位定位,主要服务区域覆盖欧洲、非洲及中东地区,为广播电视、数据通信等业务提供稳定的卫星转发资源,是Eutelsat西半球轨位通信网络的重要组成部分。

Basic Information
目录编号:
27508
目录名称:
EUTE 12 WEST A (AB 1)
国际标识:
2002-040A
轨道中心:
EARTH
卫星名称:
EUTE 12 WEST A (AB 1)
卫星全名:
--
卫星状态:
在轨 (已飞行8694 天)
发射日期:
2002-08-28 UTC
国别 :
(EUTE)
星等 :
--
Orbit Information
数据来源 国际轨道数据 AOE轨道数据
星历时间 2026-06-16T05:48:08+0800
1天前
查看轨道信息
2026-06-17T07:00:00+0800
21小时前
查看轨道信息
半长轴 42728.772km 42728.888km
偏心率 0.0007569 0.0007513
轨道倾角 7.279° 7.282°
近地点辐角 17.442° 16.018°
升交点赤经 68.562° 68.554°
平近点角 184.675° 197.626°
近地点 36318.293km 36318.648km
远地点 36382.977km 36382.854km
周期 1465.009分钟 1465.015分钟
每日圈数 0.982929 0.982925
Detailed Information
使用方式:
暂无
2D Orbit Map
3D Orbit Map
Orbit Altitude Analysis Chart
Orbit Inclination Analysis Chart
Orbit Comprehensive Analysis Chart
View Comprehensive Chart